Volver al catálogo

FENGYUN 1C DEB

ActivoSSO
NORAD 30883·DEBRIS·🇨🇳 China

Lanzado May 10, 1999 desde Taiyuan Satellite Launch Center

Loading…

Próximos Pases (próximas 24 horas)

TLE

ActualizadoSource: Space-Track

Época: Sep 12, 2026, 07:19 UTC

1 30883U 99025AXV 26255.30551019  .00000185  00000-0  10924-3 0  9994
2 30883  98.3340 279.7114 0112947 144.3220 278.2436 14.14724644  7705

Sigue FENGYUN 1C DEB en tiempo real con AllMySat

Download on the App Store